EW1587 Weather Reports


time (UTC)temp
F
wind
direction
speed
knots
gust
knots
rain 1hr
in
rain 24hr
in
rain mn
in
humidity
%
barometer
mb
20260504000519 67 328 6.1 13.9 0.00 0.00 0.00 28 1004.0
20260504000020 67 285 5.2 12.2 0.00 0.00 0.00 28 1004.1
20260503235521 67 294 5.2 12.2 0.00 0.00 0.00 30 1004.2
20260503235019 67 313 5.2 13.9 0.00 0.00 0.00 30 1004.3
20260503234521 67 281 8.7 14.8 0.00 0.00 0.00 30 1004.1
20260503234022 67 256 10.4 14.8 0.00 0.00 0.00 28 1004.2
20260503233519 67 274 6.1 12.2 0.00 0.00 0.00 28 1004.2
20260503233021 68 256 5.2 12.2 0.00 0.00 0.00 28 1004.2
20260503232519 68 266 6.1 12.2 0.00 0.00 0.00 27 1004.3
20260503232019 68 281 4.3 13.0 0.00 0.00 0.00 26 1004.5
20260503231519 68 311 4.3 13.0 0.00 0.00 0.00 26 1004.5
20260503231015 68 274 4.3 10.4 0.00 0.00 0.00 25 1004.4
20260503230518 68 351 4.3 10.4 0.00 0.00 0.00 25 1004.5
20260503230017 68 295 5.2 13.0 0.00 0.00 0.00 26 1004.3
20260503225513 68 323 4.3 13.0 0.00 0.00 0.00 26 1004.5
20260503225012 68 277 2.6 15.6 0.00 0.00 0.00 26 1004.6
20260503224511 68 267 7.0 15.6 0.00 0.00 0.00 26 1004.6
20260503224013 68 229 3.5 9.6 0.00 0.00 0.00 25 1004.8
20260503223510 68 315 3.5 8.7 0.00 0.00 0.00 25 1004.8
20260503223009 68 20 3.5 13.9 0.00 0.00 0.00 24 1004.9
20260503222510 68 330 4.3 11.3 0.00 0.00 0.00 24 1004.9
20260503222110 68 312 5.2 11.3 0.00 0.00 0.00 26 1004.8
20260503221509 68 266 4.3 13.0 0.00 0.00 0.00 27 1004.9
20260503221009 68 319 5.2 14.8 0.00 0.00 0.00 26 1005.0
20260503220509 68 321 6.1 14.8 0.00 0.00 0.00 27 1005.0
20260503220007 68 297 2.6 8.7 0.00 0.00 0.00 26 1005.0
20260503215506 68 290 6.1 9.6 0.00 0.00 0.00 25 1005.0
20260503215006 68 354 4.3 11.3 0.00 0.00 0.00 25 1005.1
20260503214505 68 324 4.3 12.2 0.00 0.00 0.00 25 1005.2
20260503214004 68 318 3.5 12.2 0.00 0.00 0.00 27 1005.1
20260503213503 68 293 7.0 12.2 0.00 0.00 0.00 27 1005.1
20260503213007 68 314 6.1 11.3 0.00 0.00 0.00 27 1005.3
20260503212503 69 317 3.5 7.0 0.00 0.00 0.00 26 1005.4
20260503212002 69 328 0.9 9.6 0.00 0.00 0.00 26 1005.4
20260503211500 68 267 3.5 9.6 0.00 0.00 0.00 25 1005.5
20260503211001 68 324 4.3 8.7 0.00 0.00 0.00 27 1005.6
20260503210600 68 328 4.3 16.5 0.00 0.00 0.00 27 1005.6
20260503210502 68 295 3.5 16.5 0.00 0.00 0.00 27 1005.6
20260503210100 68 356 6.1 16.5 0.00 0.00 0.00 27 1005.7
20260503205600 68 304 4.3 13.0 0.00 0.00 0.00 28 1005.7
20260503205059 68 340 3.5 10.4 0.00 0.00 0.00 28 1005.8
20260503204559 68 314 3.5 8.7 0.00 0.00 0.00 28 1005.8
20260503204059 67 326 4.3 12.2 0.00 0.00 0.00 27 1005.8
20260503203558 67 341 4.3 12.2 0.00 0.00 0.00 27 1006.0
20260503203114 68 296 4.3 13.0 0.00 0.00 0.00 27 1006.0
20260503202558 67 323 6.1 13.0 0.00 0.00 0.00 28 1006.1
20260503202058 67 319 5.2 10.4 0.00 0.00 0.00 28 1006.1
20260503201557 66 355 4.3 13.0 0.00 0.00 0.00 27 1006.2
20260503201058 67 349 4.3 13.0 0.00 0.00 0.00 25 1006.3
20260503200556 67 290 4.3 7.8 0.00 0.00 0.00 27 1006.2
20260503200056 67 20 3.5 7.8 0.00 0.00 0.00 25 1006.2
20260503195556 67 30 4.3 8.7 0.00 0.00 0.00 26 1006.3
20260503195054 67 55 2.6 10.4 0.00 0.00 0.00 28 1006.4
20260503194553 67 284 4.3 10.4 0.00 0.00 0.00 28 1006.4
20260503194052 66 311 2.6 9.6 0.00 0.00 0.00 30 1006.5
20260503193552 66 44 3.5 9.6 0.00 0.00 0.00 28 1006.6
20260503193054 66 4 3.5 9.6 0.00 0.00 0.00 27 1006.6
20260503192550 65 354 4.3 9.6 0.00 0.00 0.00 29 1006.7
20260503192050 65 1 4.3 13.9 0.00 0.00 0.00 28 1006.7
20260503191552 65 40 5.2 13.9 0.00 0.00 0.00 28 1006.8
20260503191048 65 328 4.3 11.3 0.00 0.00 0.00 28 1007.0
20260503190548 65 270 5.2 11.3 0.00 0.00 0.00 29 1007.1
20260503185548 65 34 10.4 14.8 0.00 0.00 0.00 30 1007.1
20260503185048 65 4 5.2 12.2 0.00 0.00 0.00 30 1007.1
20260503184545 65 347 6.1 12.2 0.00 0.00 0.00 32 1007.2
20260503184048 64 301 4.3 13.9 0.00 0.00 0.00 32 1007.3
20260503183545 64 44 7.8 13.9 0.00 0.00 0.00 33 1007.3
20260503183045 64 32 3.5 9.6 0.00 0.00 0.00 33 1007.3
20260503182544 64 18 4.3 12.2 0.00 0.00 0.00 33 1007.3
20260503182044 64 85 6.1 12.2 0.00 0.00 0.00 35 1007.3
20260503181551 64 34 5.2 11.3 0.00 0.00 0.00 34 1007.6
20260503181044 64 338 4.3 13.0 0.00 0.00 0.00 34 1007.4
20260503180543 64 4 3.5 13.0 0.00 0.00 0.00 34 1007.5
20260503180049 64 311 0.9 13.0 0.00 0.00 0.00 37 1007.4
20260503175542 64 19 7.0 13.0 0.00 0.00 0.00 34 1007.6
20260503175041 64 68 5.2 11.3 0.00 0.00 0.00 32 1007.6
20260503174542 64 34 5.2 10.4 0.00 0.00 0.00 34 1007.6
20260503174042 64 354 6.1 11.3 0.00 0.00 0.00 34 1007.8
20260503173541 64 19 4.3 11.3 0.00 0.00 0.00 34 1007.7
20260503173040 63 32 3.5 9.6 0.00 0.00 0.00 34 1007.7
20260503172539 63 71 4.3 9.6 0.00 0.00 0.00 34 1007.7
20260503172039 63 27 5.2 8.7 0.00 0.00 0.00 33 1007.7
20260503171538 63 37 4.3 8.7 0.00 0.00 0.00 35 1007.7
20260503171038 63 13 5.2 11.3 0.00 0.00 0.00 35 1007.7
20260503170538 63 22 7.0 11.3 0.00 0.00 0.00 35 1007.8
20260503150520 60 4 3.5 14.8 0.00 0.00 0.00 50 1007.5
20260503131006 53 41 4.3 11.3 0.00 0.00 0.00 59 1007.0
20260503130508 53 10 3.5 11.3 0.00 0.00 0.00 60 1006.9
20260503110556 48 317 1.7 3.5 0.00 0.00 0.00 63 1004.9
20260503100105 49 278 2.6 4.3 0.00 0.00 0.00 62 1004.8
20260503081536 53 239 4.3 8.7 0.00 0.00 0.00 54 1005.2
20260503081029 54 236 4.3 9.6 0.00 0.00 0.00 54 1005.3
20260503080527 54 228 5.2 9.6 0.00 0.00 0.00 54 1005.4
20260503072521 55 242 4.3 7.8 0.00 0.00 0.00 52 1005.6
20260503072019 55 250 4.3 7.8 0.00 0.00 0.00 52 1005.5
20260503071519 56 258 4.3 7.8 0.00 0.00 0.00 52 1005.6
20260503071016 56 232 5.2 7.8 0.00 0.00 0.00 51 1005.6
20260503070517 56 257 4.3 7.8 0.00 0.00 0.00 51 1005.6
20260503055005 59 256 6.1 12.2 0.00 0.00 0.00 49 1006.2
20260503054504 59 266 7.0 16.5 0.00 0.00 0.00 48 1006.4
20260503054004 59 257 7.8 16.5 0.00 0.00 0.00 48 1006.4
20260503053503 59 264 10.4 19.1 0.00 0.00 0.00 47 1006.5
20260503053005 58 263 11.3 19.1 0.00 0.00 0.00 49 1006.5
20260503052600 58 249 5.2 11.3 0.00 0.00 0.00 52 1006.8
20260503052100 58 264 5.2 17.4 0.00 0.00 0.00 54 1006.8
20260503051559 58 269 8.7 18.2 0.00 0.00 0.00 53 1007.0
20260503051059 58 288 10.4 18.2 0.00 0.00 0.00 54 1007.0
20260503050558 58 259 9.6 18.2 0.00 0.00 0.00 53 1006.9
20260503050056 58 278 7.0 13.0 0.00 0.00 0.00 53 1007.1
20260503045558 58 274 7.8 13.9 0.00 0.00 0.00 53 1007.0
20260503045055 57 273 7.8 13.9 0.00 0.00 0.00 52 1007.2
20260503044557 57 263 7.0 9.6 0.00 0.00 0.00 52 1007.2
20260503044055 56 252 5.2 7.8 0.00 0.00 0.00 50 1007.3
20260503043553 56 262 4.3 7.8 0.00 0.00 0.00 49 1007.3
20260503043053 56 237 4.3 9.6 0.00 0.00 0.00 48 1007.4
20260503042553 55 253 6.1 9.6 0.00 0.00 0.00 48 1007.4
20260503042051 55 256 5.2 9.6 0.00 0.00 0.00 48 1007.5
20260503041551 55 249 6.1 8.7 0.00 0.00 0.00 49 1007.7
20260503041054 55 248 6.1 8.7 0.00 0.00 0.00 49 1007.7
20260503040550 55 240 5.2 8.7 0.00 0.00 0.00 49 1007.7
20260503040049 55 248 4.3 7.8 0.00 0.00 0.00 49 1007.7
20260503035549 55 243 4.3 7.8 0.00 0.00 0.00 48 1007.8
20260503035051 56 240 3.5 7.8 0.00 0.00 0.00 48 1007.9
20260503034547 56 248 2.6 5.2 0.00 0.00 0.00 47 1008.1
20260503034047 56 242 3.5 7.0 0.00 0.00 0.00 47 1008.1
20260503033544 56 237 3.5 7.0 0.00 0.00 0.00 46 1008.2
20260503033045 56 244 4.3 7.0 0.00 0.00 0.00 46 1008.3
20260503032544 56 252 4.3 7.0 0.00 0.00 0.00 46 1008.4
20260503032044 56 243 3.5 7.0 0.00 0.00 0.00 46 1008.4
20260503031546 56 248 3.5 6.1 0.00 0.00 0.00 47 1008.5
20260503031042 57 253 3.5 7.0 0.00 0.00 0.00 47 1008.6
20260503030542 57 257 3.5 7.0 0.00 0.00 0.00 47 1008.7
20260503030046 57 259 3.5 6.1 0.00 0.00 0.00 47 1008.7
20260503025540 57 233 3.5 6.1 0.00 0.00 0.00 47 1008.8
20260503025039 57 242 2.6 4.3 0.00 0.00 0.00 48 1008.9
20260503024537 57 242 2.6 5.2 0.00 0.00 0.00 48 1009.0
20260503024037 57 240 2.6 5.2 0.00 0.00 0.00 48 1009.1
20260503023537 57 222 1.7 4.3 0.00 0.00 0.00 47 1009.2
20260503023038 57 228 1.7 4.3 0.00 0.00 0.00 47 1009.2
20260503022538 57 186 0.0 5.2 0.00 0.00 0.00 47 1009.2
20260503022035 57 191 0.9 5.2 0.00 0.00 0.00 47 1009.3
20260503021535 58 208 0.9 4.3 0.00 0.00 0.00 47 1009.4
20260503021034 58 172 0.9 4.3 0.00 0.00 0.00 46 1009.4
20260503020537 58 193 0.9 3.5 0.00 0.00 0.00 46 1009.5
20260503020034 58 195 0.9 3.5 0.00 0.00 0.00 46 1009.6
20260503015533 58 214 1.7 3.5 0.00 0.00 0.00 46 1009.7
20260503015032 58 177 0.9 2.6 0.00 0.00 0.00 46 1009.7
20260503014531 58 185 0.9 1.7 0.00 0.00 0.00 46 1009.8
20260503014030 58 179 0.9 2.6 0.00 0.00 0.00 46 1009.9
20260503013531 58 172 0.0 1.7 0.00 0.00 0.00 46 1009.9
20260503013030 59 174 0.0 1.7 0.00 0.00 0.00 46 1010.0
20260503012530 59 160 0.0 1.7 0.00 0.00 0.00 45 1010.1
20260503012028 59 179 0.0 1.7 0.00 0.00 0.00 45 1010.1
20260503011528 59 221 0.9 4.3 0.00 0.00 0.00 44 1010.1
20260503011027 59 240 1.7 7.8 0.00 0.00 0.00 44 1010.3
20260503010530 60 253 2.6 8.7 0.00 0.00 0.00 44 1010.4
20260503010029 59 261 4.3 8.7 0.00 0.00 0.00 45 1010.4
20260503005526 60 278 3.5 13.0 0.00 0.00 0.00 46 1010.5
20260503005028 60 278 8.7 18.2 0.00 0.00 0.00 46 1010.7
20260503004523 60 287 8.7 18.2 0.00 0.00 0.00 44 1010.9
20260503004023 60 290 9.6 17.4 0.00 0.00 0.00 43 1011.2
20260503003523 61 284 9.6 18.2 0.00 0.00 0.00 42 1011.3
20260503003023 61 290 7.8 18.2 0.00 0.00 0.00 42 1011.2
20260503002523 61 288 13.0 19.1 0.00 0.00 0.00 41 1011.1
20260503002023 62 288 13.0 20.0 0.00 0.00 0.00 37 1011.1
20260503001523 62 295 10.4 20.0 0.00 0.00 0.00 36 1011.2
20260503001022 62 287 10.4 18.2 0.00 0.00 0.00 36 1011.1